Hourly Data Report for October 23, 2019

All times are specified in Local Standard Time (LST). Add 1 hour to adjust for Daylight Saving Time where and when it is observed.

WOODSTOCK NEWBRIDGE
NEW BRUNSWICK
Current Station Operator: ECCC - MSC

46°09'08.000" N
67°32'34.000" W
154.00 m
8105603
71606
EWD

Download Data

Hourly Data (October 2019)
Hourly Data Report for October 23, 2019
TIME Temp Definition
°C
Dew Point Definition
°C
Rel Hum Definition
%
Wind Dir Definition
10's deg

Wind Spd Definition
km/h
Visibility Definition
km
Stn Press Definition
kPa
Hmdx Definition


Wind Chill Definition


Weather Definition


00:00 7.5 4.5 81 9 15   100.28     LegendNANA
01:00 7.3 4.7 84 8 10   100.25     LegendNANA
02:00 7.2 4.8 85 7 8   100.23     LegendNANA
03:00 7.1 5.2 87 9 4   100.15     LegendNANA
04:00 7.2 5.2 87 8 11   100.02     LegendNANA
05:00 7.3 5.2 86 9 19   99.83     LegendNANA
06:00 7.6 5.1 84 9 22   99.70     LegendNANA
07:00 7.6 4.9 83 9 25   99.60     LegendNANA
08:00 7.6 5.1 84 10 27   99.56     LegendNANA
09:00 6.9 6.0 94 9 22   99.45     LegendNANA
10:00 7.0 6.4 96 10 15   99.40     LegendNANA
11:00 7.3 6.7 96 9 9   99.31     LegendNANA
12:00 7.3 6.9 98 3 4   99.27     LegendNANA
13:00 8.4 7.9 97 6 8   99.05     LegendNANA
14:00 8.8 8.3 97 5 5   98.94     LegendNANA
15:00 9.0 8.6 97 2 7   98.85     LegendNANA
16:00 9.3 8.7 96 4 8   98.68     LegendNANA
17:00 9.0 8.6 97 28 8   98.74     LegendNANA
18:00 8.0 7.6 97 29 10   98.85     LegendNANA
19:00 7.5 7.2 98 30 12   98.94     LegendNANA
20:00 7.3 6.8 97 28 9   99.06     LegendNANA
21:00 7.1 6.5 96 28 7   99.18     LegendNANA
22:00 6.3 5.6 95 29 6   99.26     LegendNANA
23:00 6.0 5.3 95 23 5   99.39     LegendNANA

Notes on Data Quality.

Legend

  • E = Estimated
  • M = Missing
  • NA = Not Available
Date modified: